[[{"header":{"parameterUnit":"m.s-1","parameterCategory":1,"la1":30.2992,"la2":30.254,"lo1":-89.0895,"lo2":-89.0443,"dy":0.0025,"dx":0.0025,"nx":19,"ny":19,"refTime":"2026-05-03T09:00:00:Z","depth":0,"parameterNumber":2,"parameterNumberName":"U-component_of_WINDS"},"data":[0,0,0,-1.0872,-1.0872,-1.0892,-1.0892,-1.092,-1.0921,0,0,0,0,0,0,0,0,0,0,0,-1.0867,-1.0867,-1.0872,-1.0872,-1.0892,-1.0892,-1.092,-1.0921,0,0,0,0,0,0,0,0,0,0,0,-1.0867,-1.0867,-1.0867,-1.0872,-1.0892,-1.0892,-1.092,-1.0904,0,0,0,0,0,0,0,0,0,0,-1.0885,-1.0882,-1.0867,-1.0867,-1.0872,-1.0892,-1.0892,-1.0904,-1.0905,-1.0913,0,-1.0919,0,-1.092,-1.0923,-1.0923,0,0,0,-1.0871,-1.088,-1.0884,-1.0868,-1.0872,-1.0892,-1.0883,-1.0905,-1.0907,-1.0915,-1.0919,-1.092,-1.0921,-1.0923,-1.0923,-1.0966,-1.0967,0,0,-1.087,-1.0871,-1.0883,-1.0886,-1.0882,-1.0882,-1.0883,-1.0906,-1.0911,-1.0919,-1.0921,-1.0921,-1.0923,-1.0923,-1.0966,-1.0966,0,0,0,-1.0868,-1.0871,-1.0874,-1.0884,-1.0888,-1.0883,-1.0884,-1.091,-1.0911,-1.0921,-1.0921,-1.0923,-1.0924,-1.0966,-1.0966,-1.098,0,0,0,-1.0867,-1.0869,-1.0874,-1.0875,-1.0887,-1.0899,-1.0888,-1.0909,-1.0912,-1.0921,-1.0923,-1.0924,-1.0966,-1.0966,-1.0979,-1.0986,0,0,0,-1.0865,-1.0869,-1.0872,-1.0875,-1.0883,-1.0898,-1.0901,-1.091,-1.0912,-1.0923,-1.0924,-1.0965,-1.0966,-1.0978,-1.0984,-1.0998,0,0,0,-1.0864,-1.0884,-1.0872,-1.0894,-1.0883,-1.0906,-1.09,-1.0918,-1.0929,-1.0923,-1.0966,-1.0966,-1.0978,-1.0984,-1.0997,-1.101,-1.1015,0,0,-1.0889,-1.0887,-1.09,-1.089,-1.0915,-1.0903,-1.0931,-1.094,-1.094,-1.0958,-1.0959,-1.0979,-1.0984,-1.0998,-1.1044,-1.1048,0,0,0,-1.0908,-1.0917,-1.0924,-1.0934,-1.0941,-1.0948,-1.0953,-1.0956,-1.0972,-1.0949,-1.0987,-1.099,-1.0998,-1.1005,-1.1008,-1.1015,-1.0969,-1.0969,-1.0969,-1.0946,-1.0945,-1.0967,-1.0968,-1.0978,-1.0983,-1.0991,-1.0997,-1.0992,-1.1002,-1.1007,-1.1035,-1.1042,-1.1045,-1.1052,-1.1013,-1.1013,-1.1013,-1.1013,-1.0984,-1.0997,-1.0991,-1.101,-1.1009,-1.1025,-1.103,-1.1027,-1.1042,-1.1031,-1.1038,-1.1026,-1.105,-1.1056,-1.1014,-1.1014,-1.1014,-1.1014,-1.1014,-1.101,-1.1016,-1.1019,-1.1034,-1.1046,-1.1047,-1.1062,-1.106,-1.1059,-1.1065,-1.1072,-1.1071,-1.1072,-1.1068,-1.1068,-1.1068,-1.1069,-1.1069,-1.1069,-1.1035,-1.1038,-1.1051,-1.106,-1.1067,-1.1075,-1.108,-1.1087,-1.1094,-1.1092,-1.1092,-1.1087,-1.1052,-1.1043,-1.107,-1.107,-1.107,-1.107,-1.107,-1.1075,-1.1066,-1.1085,-1.1092,-1.1103,-1.1115,-1.1112,-1.1126,-1.1131,-1.1139,-1.1133,-1.1107,-1.1104,-1.1101,-1.1094,-1.1132,-1.1132,-1.1132,-1.1132,-1.1098,-1.1096,-1.1115,-1.1126,-1.1136,-1.1136,-1.1158,-1.1163,-1.1165,-1.1169,-1.1163,-1.1153,-1.115,-1.1149,-1.1145,-1.1139,-1.1188,-1.1188,-1.1188,-1.1123,-1.1122,-1.1141,-1.1143,-1.1152,-1.1159,-1.118,-1.1194,-1.1195,-1.119,-1.1172,-1.1169,-1.1154,-1.1149,-1.1144,-1.1138,-1.1126,0,0]},{"header":{"parameterUnit":"m.s-1","parameterCategory":1,"la1":30.2992,"la2":30.254,"lo1":-89.0895,"lo2":-89.0443,"dy":0.0025,"dx":0.0025,"nx":19,"ny":19,"refTime":"2026-05-03T09:00:00:Z","depth":0,"parameterNumber":3,"parameterNumberName":"V-component_of_WINDS"},"data":[0,0,0,4.2246,4.2248,4.2332,4.2332,4.2446,4.2447,0,0,0,0,0,0,0,0,0,0,0,4.2229,4.223,4.2246,4.2248,4.2332,4.2332,4.2446,4.2447,0,0,0,0,0,0,0,0,0,0,0,4.2228,4.223,4.2231,4.2249,4.2332,4.2332,4.2446,4.238,0,0,0,0,0,0,0,0,0,0,4.2297,4.2289,4.2229,4.2231,4.2249,4.2332,4.2332,4.2376,4.2384,4.2413,0,4.2442,0,4.2447,4.2456,4.2456,0,0,0,4.2242,4.2283,4.2299,4.2231,4.225,4.2332,4.2292,4.238,4.2389,4.2423,4.2444,4.2448,4.2449,4.2457,4.2457,4.2646,4.2647,0,0,4.2238,4.2248,4.2293,4.2305,4.2295,4.229,4.2295,4.2385,4.2408,4.2444,4.245,4.2451,4.2457,4.2458,4.2645,4.2646,0,0,0,4.2229,4.2245,4.2258,4.23,4.2315,4.2292,4.2298,4.2404,4.2408,4.2452,4.2452,4.2458,4.246,4.2644,4.2645,4.271,0,0,0,4.2226,4.2239,4.2256,4.2263,4.2313,4.2361,4.2316,4.2402,4.2412,4.2451,4.2458,4.2461,4.2642,4.2644,4.2705,4.2738,0,0,0,4.2221,4.2238,4.2253,4.2263,4.23,4.236,4.2368,4.2404,4.2412,4.2456,4.2461,4.2641,4.2644,4.2701,4.2732,4.2788,0,0,0,4.2218,4.2311,4.2255,4.2358,4.2299,4.24,4.2368,4.2442,4.2488,4.2459,4.2642,4.2645,4.27,4.2728,4.2784,4.2835,4.2859,0,0,4.2341,4.2327,4.2387,4.2338,4.2451,4.2387,4.2509,4.2542,4.2537,4.2609,4.2614,4.2707,4.2731,4.2787,4.299,4.3009,0,0,0,4.2428,4.2471,4.2499,4.2543,4.2571,4.2595,4.2608,4.262,4.268,4.2577,4.2744,4.2758,4.279,4.2814,4.283,4.2855,4.2658,4.2657,4.2657,4.2615,4.2603,4.27,4.2698,4.2741,4.2751,4.2784,4.28,4.2778,4.2817,4.2838,4.2962,4.2991,4.3003,4.3029,4.2866,4.2867,4.2867,4.2867,4.279,4.2847,4.2813,4.2894,4.288,4.2947,4.296,4.2941,4.2999,4.2947,4.2975,4.2915,4.3023,4.3046,4.2872,4.2871,4.287,4.287,4.287,4.2908,4.2933,4.2946,4.3005,4.3052,4.3046,4.3103,4.3089,4.3077,4.3104,4.3122,4.3121,4.3115,4.3114,4.3115,4.3115,4.3115,4.3116,4.3116,4.3025,4.3037,4.3087,4.3122,4.3146,4.3176,4.3186,4.3209,4.323,4.3215,4.3215,4.3185,4.3038,4.2999,4.3123,4.3121,4.3121,4.312,4.3119,4.3203,4.3159,4.3238,4.3262,4.3298,4.3343,4.3325,4.3371,4.3388,4.3416,4.338,4.3275,4.3258,4.3246,4.3213,4.3385,4.3385,4.3385,4.3385,4.33,4.3291,4.3365,4.3403,4.344,4.343,4.3514,4.3521,4.3522,4.3531,4.3504,4.3461,4.3449,4.344,4.3423,4.3392,4.3606,4.3606,4.3606,4.3406,4.3399,4.3475,4.3475,4.3502,4.3525,4.3602,4.3646,4.3638,4.3615,4.3536,4.3527,4.3457,4.3436,4.3409,4.3383,4.3326,0,0]}]]